Time,TemperatureF,DewpointF,PressureIn,WindDirection,WindDirectionDegrees,WindSpeedMPH,WindSpeedGustMPH,Humidity,HourlyPrecipIn,Conditions,Clouds,dailyrainin,SoftwareType,DateUTC
2013-03-04 00:01:00,34.0,24.0,30.03,North,-999,-999.0,-999.0,66,0.00,,,0.00,,2013-03-04 08:01:00,
2013-03-04 00:11:00,34.0,24.0,30.03,North,-999,-999.0,-999.0,66,0.00,,,0.00,,2013-03-04 08:11:00,
2013-03-04 07:01:00,34.0,24.0,30.03,North,-999,-999.0,-999.0,66,0.00,,,0.00,,2013-03-04 15:01:00,
2013-03-04 07:31:00,29.0,23.0,30.12,North,-999,-999.0,-999.0,79,0.00,,,0.00,,2013-03-04 15:31:00,
2013-03-04 07:41:00,29.0,23.0,30.12,North,-999,-999.0,-999.0,79,0.00,,,0.00,,2013-03-04 15:41:00,
2013-03-04 07:52:00,29.0,23.0,30.12,North,-999,-999.0,-999.0,79,0.00,,,0.00,,2013-03-04 15:52:00,
2013-03-04 08:02:00,30.0,24.0,30.12,North,-999,-999.0,-999.0,79,0.00,,,0.00,,2013-03-04 16:02:00,
2013-03-04 08:11:00,30.0,24.0,30.12,North,-999,-999.0,-999.0,79,0.00,,,0.00,,2013-03-04 16:11:00,
2013-03-04 08:21:00,31.0,25.0,30.13,North,-999,-999.0,-999.0,79,0.00,,,0.00,,2013-03-04 16:21:00,
2013-03-04 08:31:00,31.0,25.0,30.13,North,-999,-999.0,-999.0,78,0.00,,,0.00,,2013-03-04 16:31:00,
2013-03-04 08:41:00,31.0,25.0,30.13,North,-999,-999.0,-999.0,78,0.00,,,0.00,,2013-03-04 16:41:00,
2013-03-04 08:52:00,32.0,26.0,30.14,North,-999,-999.0,-999.0,78,0.00,,,0.00,,2013-03-04 16:52:00,
2013-03-04 09:02:00,32.0,26.0,30.14,North,-999,-999.0,-999.0,78,0.00,,,0.00,,2013-03-04 17:02:00,
2013-03-04 09:11:00,32.0,26.0,30.14,North,-999,-999.0,-999.0,78,0.00,,,0.00,,2013-03-04 17:11:00,
2013-03-04 09:21:00,32.0,26.0,30.14,North,-999,-999.0,-999.0,78,0.00,,,0.00,,2013-03-04 17:21:00,
2013-03-04 09:31:00,32.0,26.0,30.14,North,-999,-999.0,-999.0,78,0.00,,,0.00,,2013-03-04 17:31:00,
2013-03-04 12:01:00,32.0,26.0,30.14,North,-999,-999.0,-999.0,79,0.00,,,0.00,,2013-03-04 20:01:00,
2013-03-04 12:21:00,33.0,27.0,30.14,North,-999,-999.0,-999.0,79,0.00,,,0.00,,2013-03-04 20:21:00,
2013-03-04 12:32:00,41.0,26.0,30.10,North,-999,-999.0,-999.0,55,0.00,,,0.00,,2013-03-04 20:32:00,
2013-03-04 12:41:00,41.0,26.0,30.10,North,-999,-999.0,-999.0,55,0.00,,,0.00,,2013-03-04 20:41:00,
2013-03-04 12:52:00,42.0,27.0,30.10,North,-999,-999.0,-999.0,54,0.00,,,0.00,,2013-03-04 20:52:00,
2013-03-04 13:01:00,42.0,27.0,30.10,North,-999,-999.0,-999.0,54,0.00,,,0.00,,2013-03-04 21:01:00,
2013-03-04 13:11:00,42.0,27.0,30.10,North,-999,-999.0,-999.0,54,0.00,,,0.00,,2013-03-04 21:11:00,
2013-03-04 13:21:00,42.0,27.0,30.09,North,-999,-999.0,-999.0,54,0.00,,,0.00,,2013-03-04 21:21:00,
2013-03-04 13:31:00,42.0,27.0,30.08,North,-999,-999.0,-999.0,55,0.00,,,0.00,,2013-03-04 21:31:00,
2013-03-04 13:42:00,42.0,27.0,30.08,North,-999,-999.0,-999.0,55,0.00,,,0.00,,2013-03-04 21:42:00,
2013-03-04 13:52:00,43.0,27.0,30.07,North,-999,-999.0,-999.0,53,0.00,,,0.00,,2013-03-04 21:52:00,
2013-03-04 14:01:00,43.0,28.0,30.07,North,-999,-999.0,-999.0,54,0.00,,,0.00,,2013-03-04 22:01:00,
2013-03-04 14:11:00,43.0,28.0,30.07,North,-999,-999.0,-999.0,54,0.00,,,0.00,,2013-03-04 22:11:00,
2013-03-04 14:21:00,42.0,26.0,30.06,North,-999,-999.0,-999.0,53,0.00,,,0.00,,2013-03-04 22:21:00,
2013-03-04 14:31:00,43.0,27.0,30.06,North,-999,-999.0,-999.0,53,0.00,,,0.00,,2013-03-04 22:31:00,
2013-03-04 14:52:00,43.0,27.0,30.06,North,-999,-999.0,-999.0,53,0.00,,,0.00,,2013-03-04 22:52:00,
2013-03-04 15:01:00,42.0,26.0,30.06,North,-999,-999.0,-999.0,53,0.00,,,0.00,,2013-03-04 23:01:00,
2013-03-04 15:11:00,42.0,26.0,30.06,North,-999,-999.0,-999.0,53,0.00,,,0.00,,2013-03-04 23:11:00,
2013-03-04 15:21:00,43.0,27.0,30.05,North,-999,-999.0,-999.0,53,0.00,,,0.00,,2013-03-04 23:21:00,
2013-03-04 15:31:00,43.0,27.0,30.05,North,-999,-999.0,-999.0,53,0.00,,,0.00,,2013-03-04 23:31:00,
2013-03-04 15:41:00,43.0,27.0,30.05,North,-999,-999.0,-999.0,53,0.00,,,0.00,,2013-03-04 23:41:00,
2013-03-04 15:52:00,43.0,27.0,30.05,North,-999,-999.0,-999.0,53,0.00,,,0.00,,2013-03-04 23:52:00,
2013-03-04 16:01:00,43.0,27.0,30.05,North,-999,-999.0,-999.0,53,0.00,,,0.00,,2013-03-05 00:01:00,
2013-03-04 17:22:00,39.0,25.0,30.01,North,-999,-999.0,-999.0,57,0.00,,,0.00,,2013-03-05 01:22:00,
2013-03-04 17:33:00,38.0,25.0,30.01,North,-999,-999.0,-999.0,58,0.00,,,0.00,,2013-03-05 01:33:00,
2013-03-04 17:42:00,38.0,25.0,30.01,North,-999,-999.0,-999.0,58,0.00,,,0.00,,2013-03-05 01:42:00,
2013-03-04 17:52:00,37.0,24.0,30.01,North,-999,-999.0,-999.0,60,0.00,,,0.00,,2013-03-05 01:52:00,
2013-03-04 18:01:00,37.0,24.0,30.01,North,-999,-999.0,-999.0,60,0.00,,,0.00,,2013-03-05 02:01:00,
2013-03-04 18:11:00,37.0,24.0,30.01,North,-999,-999.0,-999.0,60,0.00,,,0.00,,2013-03-05 02:11:00,
2013-03-04 18:21:00,36.0,23.0,30.00,North,-999,-999.0,-999.0,60,0.00,,,0.00,,2013-03-05 02:21:00,
2013-03-04 18:31:00,36.0,24.0,30.00,North,-999,-999.0,-999.0,61,0.00,,,0.00,,2013-03-05 02:31:00,
2013-03-04 18:41:00,36.0,24.0,30.00,North,-999,-999.0,-999.0,61,0.00,,,0.00,,2013-03-05 02:41:00,
2013-03-04 18:52:00,36.0,24.0,29.99,North,-999,-999.0,-999.0,61,0.00,,,0.00,,2013-03-05 02:52:00,
2013-03-04 19:01:00,36.0,24.0,30.00,North,-999,-999.0,-999.0,61,0.00,,,0.00,,2013-03-05 03:01:00,
2013-03-04 19:11:00,36.0,24.0,30.00,North,-999,-999.0,-999.0,61,0.00,,,0.00,,2013-03-05 03:11:00,
2013-03-04 19:21:00,35.0,23.0,29.99,North,-999,-999.0,-999.0,61,0.00,,,0.00,,2013-03-05 03:21:00,
2013-03-04 19:31:00,34.0,22.0,29.99,North,-999,-999.0,-999.0,62,0.00,,,0.00,,2013-03-05 03:31:00,
2013-03-04 19:41:00,34.0,22.0,29.99,North,-999,-999.0,-999.0,62,0.00,,,0.00,,2013-03-05 03:41:00,
2013-03-04 19:51:00,34.0,22.0,29.99,North,-999,-999.0,-999.0,62,0.00,,,0.00,,2013-03-05 03:51:00,
2013-03-04 20:01:00,34.0,22.0,29.99,North,-999,-999.0,-999.0,62,0.00,,,0.00,,2013-03-05 04:01:00,
2013-03-04 20:11:00,34.0,22.0,29.99,North,-999,-999.0,-999.0,62,0.00,,,0.00,,2013-03-05 04:11:00,
2013-03-04 20:21:00,35.0,23.0,29.98,North,-999,-999.0,-999.0,60,0.00,,,0.00,,2013-03-05 04:21:00,
2013-03-04 20:31:00,35.0,23.0,29.98,North,-999,-999.0,-999.0,60,0.00,,,0.00,,2013-03-05 04:31:00,
2013-03-04 20:42:00,35.0,23.0,29.98,North,-999,-999.0,-999.0,60,0.00,,,0.00,,2013-03-05 04:42:00,
2013-03-04 20:52:00,35.0,22.0,29.98,North,-999,-999.0,-999.0,59,0.00,,,0.00,,2013-03-05 04:52:00,
2013-03-04 21:01:00,35.0,22.0,29.97,North,-999,-999.0,-999.0,59,0.00,,,0.00,,2013-03-05 05:01:00,
2013-03-04 21:11:00,35.0,22.0,29.97,North,-999,-999.0,-999.0,59,0.00,,,0.00,,2013-03-05 05:11:00,
2013-03-04 21:22:00,35.0,22.0,29.97,North,-999,-999.0,-999.0,58,0.00,,,0.00,,2013-03-05 05:22:00,
2013-03-04 21:31:00,35.0,22.0,29.97,North,-999,-999.0,-999.0,58,0.00,,,0.00,,2013-03-05 05:31:00,
2013-03-04 21:41:00,35.0,22.0,29.97,North,-999,-999.0,-999.0,58,0.00,,,0.00,,2013-03-05 05:41:00,
2013-03-04 21:52:00,35.0,22.0,29.97,North,-999,-999.0,-999.0,58,0.00,,,0.00,,2013-03-05 05:52:00,
2013-03-04 22:01:00,34.0,21.0,29.97,North,-999,-999.0,-999.0,58,0.00,,,0.00,,2013-03-05 06:01:00,
2013-03-04 22:11:00,34.0,21.0,29.97,North,-999,-999.0,-999.0,58,0.00,,,0.00,,2013-03-05 06:11:00,
2013-03-04 22:22:00,34.0,21.0,29.97,North,-999,-999.0,-999.0,58,0.00,,,0.00,,2013-03-05 06:22:00,
2013-03-04 22:31:00,34.0,21.0,29.97,North,-999,-999.0,-999.0,58,0.00,,,0.00,,2013-03-05 06:31:00,
2013-03-04 22:41:00,34.0,21.0,29.97,North,-999,-999.0,-999.0,58,0.00,,,0.00,,2013-03-05 06:41:00,
2013-03-04 22:52:00,34.0,21.0,29.97,North,-999,-999.0,-999.0,58,0.00,,,0.00,,2013-03-05 06:52:00,
2013-03-04 23:01:00,34.0,21.0,29.97,North,-999,-999.0,-999.0,58,0.00,,,0.00,,2013-03-05 07:01:00,